Home > Weather > Traun > Past weeks

Flag for Austria Past Weather in Traun, Upper Austria, Austria — Yesterday and Last 2 Weeks

Now
68 °F

Sunny.


Feels Like: 68 °F
Forecast: 64 / 81 °F
Wind: 2 mph from North

Location: Linz / Hoersching-Flughafen

Current Time: Jun 30, 2016 at 8:55:18 AM

Latest Report: Jun 30, 2016 at 8:20 AM


Visibility: 10 mi

Pressure: 29.98 "Hg

Humidity: 78%

Dew Point: 61 °F

Location of TraunLocation

Past Weather in Traun — Graph

°F

Traun Temperature Yesterday

Maximum temperature yesterday: 81 °F (at 3:20 PM)
Minimum temperature yesterday: 55 °F (at 4:50 AM)
Average temperature yesterday: 70 °F

High & Low Weather Summary for the Past Weeks

 TemperatureHumidityPressure
High91 °F (Jun 24, 2:20 PM)100% (Jun 16, 4:20 AM)30.30 "Hg (Jun 16, 4:20 AM)
Low54 °F (Jun 18, 4:50 AM)32% (Jun 24, 4:50 PM)29.50 "Hg (Jun 16, 4:50 PM)
Average68 °F71%30.02 "Hg
* Reported Jun 15 7:20 AM — Jun 30 7:20 AM, Traun, Weather by CustomWeather, © 2016

Note: Actual official high and low records may vary slightly from our data, if they occured in-between our weather recording intervals... More about our weather records

Advertising

Traun Weather History for the Previous 24 Hours

Scroll right to see more
 ConditionsComfort  
Time TempWeatherWind HumidityBarometerVisibility
7:20 AM
Thu, Jun 30
66 °FSunny.2 mph83%29.98 "Hg10 mi
6:50 AM66 °FSunny.1 mph83%29.95 "Hg10 mi
6:20 AM66 °FPassing clouds.6 mph83%29.95 "HgN/A
5:50 AM64 °FPassing clouds.6 mph88%29.95 "HgN/A
5:20 AM64 °FPartly cloudy.6 mph88%29.95 "HgN/A
4:50 AM64 °FSprinkles. Passing clouds.9 mph88%29.98 "HgN/A
4:20 AM64 °FClear.6 mph88%29.98 "Hg10 mi
3:50 AM64 °FPartly cloudy.2 mph88%29.95 "HgN/A
3:20 AM64 °FPartly cloudy.1 mph88%29.98 "HgN/A
2:50 AM64 °FPassing clouds.2 mph83%29.98 "HgN/A
2:20 AM66 °FPassing clouds.2 mph78%29.98 "HgN/A
1:50 AM66 °FPassing clouds.5 mph78%29.95 "HgN/A
1:20 AM68 °FPassing clouds.6 mph73%29.95 "HgN/A
12:50 AM70 °FSprinkles. Overcast.8 mph64%29.98 "HgN/A
11:50 PM
Wed, Jun 29
72 °FThundershowers. Overcast.13 mph69%29.98 "HgN/A
11:20 PM72 °FMild.5 mph73%29.95 "HgN/A
10:50 PM72 °FMild.3 mph73%29.95 "HgN/A
10:20 PM70 °FMild.1 mph78%29.95 "HgN/A
9:50 PM73 °FMild.3 mph65%29.95 "HgN/A
9:20 PM73 °FPartly sunny.2 mph65%29.95 "HgN/A
8:50 PM75 °FPartly sunny.3 mph57%29.95 "HgN/A
8:20 PM77 °FPartly sunny.3 mph54%29.95 "HgN/A
7:50 PM79 °FPassing clouds.5 mph48%29.95 "HgN/A
7:20 PM79 °FPassing clouds.6 mph48%29.95 "HgN/A
6:50 PM81 °FPassing clouds.3 mph42%29.95 "HgN/A
6:20 PM81 °FPassing clouds.5 mph45%29.95 "HgN/A
5:50 PM81 °FPassing clouds.6 mph45%29.95 "HgN/A
5:20 PM81 °FPassing clouds.6 mph48%29.95 "HgN/A
4:50 PM81 °FPassing clouds.8 mph45%29.98 "HgN/A
4:20 PM81 °FScattered clouds.8 mph45%29.98 "HgN/A
3:50 PM79 °FScattered clouds.7 mph48%29.98 "HgN/A
3:20 PM81 °FScattered clouds.7 mph48%29.98 "HgN/A
2:50 PM79 °FPartly sunny.12 mph48%30.01 "HgN/A
2:20 PM79 °FScattered clouds.12 mph45%30.01 "HgN/A
1:50 PM79 °FPassing clouds.9 mph45%30.01 "HgN/A
1:20 PM79 °FPassing clouds.12 mph48%30.01 "HgN/A
12:50 PM79 °FPassing clouds.10 mph51%30.01 "HgN/A
12:20 PM77 °FPassing clouds.13 mph54%30.01 "HgN/A
11:50 AM77 °FPassing clouds.10 mph54%30.01 "HgN/A
11:20 AM75 °FPassing clouds.7 mph57%30.01 "HgN/A
10:50 AM73 °FPassing clouds.10 mph57%30.01 "HgN/A
10:20 AM72 °FPassing clouds.7 mph61%30.01 "HgN/A
9:50 AM70 °FPassing clouds.5 mph64%30.04 "HgN/A
9:20 AM70 °FSunny.1 mph64%30.04 "Hg10 mi
8:50 AM66 °FPassing clouds.2 mph73%30.04 "HgN/A
8:20 AM64 °FPassing clouds.1 mph78%30.01 "HgN/A
Weather by CustomWeather, © 2016

See weather overviewHow to use our weather pages